CAPE
1259 855 891 1237 134 1 0 63 89 162 130 71 56 16 30 39 16 0 29 54 162 309 537 929 1769 1644 1408 1657 1637 1676 1234 1809 1389 1812 1600 1956 2136 1997 2078 1917 1866 2051 1689 1583 1892 1833 1744 1644 1604
1190 1292 1741 1085 113 24 6 8 135 124 59 49 35 30 29 51 42 44 70 93 131 290 740 1182 1927 1806 1495 1691 1587 1771 1748 1623 1437 1281 1484 2071 2084 2038 1625 1354 1444 1387 1276 1441 1596 1662 1583 1557 1503
1052 1230 747 784 44 65 139 96 226 83 32 108 30 23 27 62 43 37 35 92 115 419 883 1145 1214 1372 1504 1686 1675 1648 1626 929 1313 1407 769 841 1199 1199 1376 1417 1123 1320 1662 1741 1637 1486 1370 1308 1367
747 621 727 620 129 18 194 216 106 150 30 7 0 17 59 113 48 35 81 67 172 503 723 1468 1824 1438 1440 1700 1675 1498 1081 659 1723 1226 1292 1890 1425 1257 1112 1465 1966 1716 1543 1420 1322 1338 1413 1470 1513
73 974 619 55 153 209 350 344 277 143 47 24 24 21 42 69 34 56 68 44 186 480 578 1228 1631 1555 1554 1181 504 483 982 1319 1811 1033 1543 2048 1902 1588 1614 1591 1593 1538 1412 1298 1288 1314 1357 1387 1597
379 557 175 186 317 456 403 308 156 58 38 1 1 1 33 45 5 19 14 61 163 482 480 1071 1462 1540 1392 1253 677 1606 1655 1523 1670 1878 1585 1488 1773 1744 1771 1557 1425 1328 1340 1375 1375 1358 1389 1453 1604
613 50 125 363 494 464 385 227 115 9 14 9 0 3 59 49 18 3 34 65 309 304 602 793 1187 1098 1503 1030 580 1710 1683 1667 1467 1559 1591 1408 1359 1489 1507 1370 1329 1253 1169 1180 1121 1298 1364 1662 1970
599 0 219 424 410 429 305 240 138 45 12 24 11 1 30 72 43 5 66 65 136 294 591 581 682 776 832 549 560 977 1653 1486 1221 1209 1494 1768 1681 1455 1463 1507 1609 1568 1537 1462 1347 1232 1688 1741 942
25 1 13 242 335 359 360 238 175 72 5 45 20 1 8 62 41 87 110 97 155 290 346 430 510 541 567 975 1323 1289 1221 1109 914 992 1269 1566 1325 979 1287 1546 1853 1675 1621 1122 1228 1535 1895 1544 417
0 0 1 330 327 451 392 324 217 177 115 0 6 33 40 36 77 84 191 161 134 189 178 233 328 397 404 1064 794 496 768 757 482 496 366 473 408 536 1169 1600 1926 1706 1679 2109 2342 2531 2327 1877 203
0 0 44 408 417 444 398 401 360 236 189 42 0 13 36 43 47 22 22 100 65 50 230 202 268 322 143 360 109 238 259 441 232 109 23 233 695 870 841 555 163 6 127 1075 1359 1406 642 0 11
0 0 293 425 540 473 451 369 281 342 153 69 0 2 15 18 0 0 10 0 26 119 211 256 275 129 87 182 76 152 251 68 234 425 158 477 678 565 636 243 253 600 737 556 305 533 270 5 25
0 235 313 596 501 424 490 471 396 179 31 0 0 0 0 0 0 0 0 0 5 40 36 119 78 36 12 36 0 4 41 47 30 60 297 776 645 530 666 873 418 20 229 328 297 556 358 85 99
0 318 533 442 699 675 585 525 429 195 35 0 0 0 0 0 0 0 0 0 0 0 0 0 21 13 0 0 0 0 28 97 161 270 283 914 882 883 949 545 17 0 11 575 667 608 473 459 720
2 141 356 659 678 658 455 425 471 274 95 2 0 0 0 0 0 0 0 0 0 0 0 0 37 12 0 0 0 0 90 221 172 341 672 1102 884 713 966 825 143 0 0 3 372 487 591 838 387
0 0 69 158 420 647 210 277 497 341 219 78 17 3 0 0 0 0 0 0 0 0 0 0 130 15 0 52 19 50 23 80 18 44 142 230 646 707 956 646 425 119 0 0 543 609 843 467 306
0 0 0 0 279 514 331 427 582 448 389 312 161 93 23 0 0 0 0 0 0 0 0 0 31 0 0 15 0 0 2 97 42 5 0 23 514 797 705 845 1046 987 449 731 800 739 618 767 672
0 0 0 0 34 359 479 503 566 441 383 405 346 256 277 180 18 0 0 0 0 0 0 0 0 0 0 0 0 0 24 31 6 4 0 0 145 540 582 1090 1270 1215 1023 864 511 565 760 966 739
0 0 2 0 16 64 287 654 569 456 317 279 142 215 198 126 80 4 0 0 0 0 0 0 0 0 0 0 0 0 0 0 0 0 0 235 29 7 632 1381 1109 1317 1186 1222 870 811 684 578 697
0 0 0 0 0 28 371 636 645 495 343 233 202 172 144 67 18 2 0 0 0 0 0 0 0 0 0 0 0 0 0 0 0 8 103 55 93 133 256 963 1171 1224 1424 1197 1263 1053 911 989 838
0 0 0 0 0 7 295 306 636 566 485 356 274 144 75 54 0 0 0 0 0 0 0 0 0 0 0 0 0 0 0 23 28 41 24 0 0 41 304 617 1351 1543 1375 1370 1382 1390 1110 1133 911
0 0 0 0 0 2 27 3 166 401 420 379 313 241 84 22 1 0 0 0 0 0 0 0 0 0 0 0 0 0 0 12 20 21 0 24 246 196 636 578 1266 129 1027 623 443 1586 1351 1026 921
0 0 0 0 0 0 0 0 0 112 289 279 332 266 163 53 6 0 9 0 0 0 0 0 0 0 0 0 0 0 0 17 33 47 92 148 267 810 1091 1049 47 0 118 28 391 1015 834 776 846
0 0 0 0 0 0 0 0 0 3 60 148 209 258 171 100 36 11 12 17 0 0 0 0 0 0 0 0 0 0 17 24 75 257 430 440 448 627 1337 736 10 6 2 195 875 1011 758 679 516
0 0 0 0 0 0 0 0 0 0 0 21 70 163 214 119 65 36 48 36 6 0 0 0 0 0 0 1 0 15 23 38 139 287 368 293 250 590 1163 639 209 492 364 915 934 636 552 428 202
0 0 0 0 0 0 0 0 1 0 0 0 2 29 114 104 20 65 96 74 41 24 7 0 0 0 0 1 115 104 35 44 66 90 208 598 1005 799 1065 906 881 931 1124 773 372 48 12 0 0
0 0 0 0 0 0 0 0 0 0 0 0 0 3 24 11 20 83 102 88 53 48 36 12 11 0 0 56 137 153 212 265 393 624 965 1217 1068 878 993 1294 1114 920 698 112 0 0 0 0 0
0 0 0 0 0 0 0 0 0 0 0 0 0 0 0 0 9 105 152 148 117 89 65 41 64 45 26 58 131 314 474 397 543 753 958 1047 1130 1579 1410 899 241 0 0 0 0 0 0 0 0
0 0 0 0 0 0 0 0 0 0 0 0 0 0 0 0 1 31 85 108 137 136 114 131 163 196 148 133 292 405 806 1127 1123 1193 1273 1250 1595 1237 806 47 0 0 0 0 0 0 0 0 0
0 0 0 0 0 0 0 0 0 0 0 0 0 0 0 0 0 0 41 38 37 75 106 143 362 484 597 613 809 1019 968 1229 1377 1410 1318 1301 1365 692 22 0 0 0 0 0 0 0 0 0 0
CIN
-105 -130 -91 -40 -85 -21 0 -34 -66 -13 -6 -66 -56 -55 -74 -81 -78 -23 -84 -20 -19 -11 -8 -2 -1 0 0 0 0 0 0 0 0 0 0 0 0 0 0 0 0 0 -1 -1 0 0 0 0 0
-137 -85 -32 -78 -92 -75 -34 -58 -48 -41 -70 -92 -75 -65 -87 -57 -60 -63 -68 -13 -25 -14 -9 -4 0 0 0 0 0 0 0 0 0 0 0 0 0 0 0 -1 -2 -2 -8 -4 0 0 0 0 -1
-177 -95 -122 -61 -95 -63 -57 -88 -55 -98 -108 -88 -107 -87 -87 -70 -58 -74 -78 -12 -17 -14 -7 -2 0 0 0 0 -1 0 0 -1 0 0 -10 -20 -4 -7 -1 -2 -15 -7 -1 -2 -1 -3 -5 -8 -10
-184 -206 -153 -62 -53 -132 -81 -88 -79 -91 -121 -167 -4 -129 -58 -37 -40 -36 -6 -26 -17 -9 -8 -1 0 0 0 0 -1 0 -6 -20 0 -2 -1 0 -1 -7 -16 -6 0 -4 -12 -16 -18 -9 -6 -6 -9
-425 -149 -51 -40 -34 -55 -43 -51 -61 -92 -143 -124 -140 -109 -85 -32 -36 -10 -2 -10 -14 -7 -12 -3 0 0 0 -1 -33 -42 -15 0 0 -4 0 0 0 -2 -3 -4 -4 -8 -22 -24 -24 -23 -14 -9 -9
-229 -181 -33 -33 -31 -40 -62 -84 -120 -152 -152 -43 -122 0 -67 -43 -28 -44 -65 -13 -14 -9 -15 -4 0 0 0 0 -14 0 0 0 0 0 0 0 0 0 -5 -11 -17 -15 -18 -13 -21 -23 -18 -17 -18
-147 -161 -66 -52 -56 -36 -73 -88 -110 -174 -183 -199 0 0 -65 -61 -75 -74 -24 -22 -18 -21 -11 -9 -5 -2 0 -1 -21 0 0 0 0 0 0 -1 -6 -3 -9 -11 -14 -12 -21 -25 -41 -37 -27 -20 -15
-173 0 -60 -50 -76 -44 -85 -105 -131 -161 -186 -228 -251 0 -143 -92 -87 -37 -35 -21 -23 -25 -20 -29 -30 -30 -17 -23 -23 -5 0 -1 -7 -16 -1 -1 -1 -9 -14 -16 -14 -12 -23 -19 -34 -48 -30 -32 -67
-171 -29 -94 -58 -79 -92 -106 -141 -135 -166 -61 -157 -198 -24 -201 -115 -103 -42 -16 -22 -22 -31 -61 -56 -58 -31 -29 -12 -2 -2 -2 -17 -39 -43 -26 -25 -48 -82 -54 -56 -20 -23 -26 -45 -48 -46 -29 -52 -138
0 0 -37 -67 -92 -107 -121 -109 -170 -144 -147 0 -105 -185 -132 -136 -85 -50 -38 -12 -39 -49 -70 -93 -71 -57 -79 -18 -64 -87 -59 -73 -120 -129 -148 -157 -164 -145 -73 -49 -23 -30 -50 -38 -26 -19 -34 -61 -240
0 0 -31 -75 -96 -114 -106 -97 -131 -139 -110 -190 0 -203 -160 -135 -110 -89 -51 -46 -90 -109 -50 -98 -96 -134 -173 -114 -205 -155 -158 -131 -192 -280 -334 -232 -157 -132 -132 -173 -263 -361 -276 -140 -118 -94 -155 0 -225
0 0 -95 -121 -118 -111 -105 -123 -137 -98 -142 -200 0 -67 -209 -186 0 0 -72 0 -121 -53 -60 -99 -131 -162 -193 -167 -246 -191 -163 -272 -209 -189 -267 -175 -138 -137 -134 -224 -242 -178 -157 -175 -214 -182 -238 -33 -282
0 -130 -121 -123 -132 -113 -109 -102 -109 -158 -288 0 0 0 0 0 0 0 0 0 -166 -101 -145 -121 -152 -195 -191 -263 0 -93 -244 -278 -348 -324 -229 -142 -148 -141 -154 -148 -219 -194 -140 -230 -221 -198 -223 -275 -264
0 -143 -138 -143 -134 -158 -163 -133 -117 -124 -247 0 0 0 0 0 0 0 0 0 0 0 0 -71 -184 -115 0 0 0 0 -285 -244 -252 -240 -227 -128 -132 -133 -126 -162 -127 0 -19 -184 -180 -185 -194 -186 -178
-19 -158 -175 -137 -183 -195 -165 -167 -137 -168 -238 -66 0 0 0 0 0 0 0 0 0 0 0 0 -164 -209 0 0 0 0 -232 -205 -241 -207 -172 -112 -118 -131 -115 -134 -215 0 0 -22 -183 -165 -162 -143 -182
0 0 -138 -199 -166 -182 -230 -216 -136 -183 -195 -244 -268 -242 0 0 0 0 0 0 0 0 0 0 -128 -161 0 -171 -189 -210 -269 -258 -174 -283 -250 -211 -140 -126 -111 -148 -166 -279 0 0 -167 -156 -111 -144 -194
0 0 0 0 -158 -164 -186 -203 -163 -184 -166 -144 -162 -192 -302 -23 0 0 0 0 0 0 0 0 -138 0 0 -102 0 0 -115 -254 -293 -310 0 -141 -157 -110 -144 -142 -124 -135 -214 -173 -161 -149 -165 -133 -160
0 0 0 0 -45 -191 -218 -219 -195 -214 -199 -149 -137 -148 -140 -173 -333 0 0 0 0 0 0 0 -13 0 0 0 0 0 -239 -267 -77 -90 0 0 -200 -145 -160 -135 -111 -130 -126 -141 -196 -186 -193 -171 -191
0 0 -62 0 -183 -207 -231 -234 -263 -263 -259 -256 -310 -216 -209 -260 -259 -364 0 0 0 0 0 0 0 0 0 0 0 0 0 0 0 0 0 -220 -328 -300 -160 -111 -122 -114 -122 -121 -174 -179 -184 -216 -227
0 0 0 0 0 -252 -239 -239 -261 -292 -339 -305 -319 -295 -277 -292 -363 -192 0 0 0 0 0 0 0 0 0 0 0 0 0 0 0 -94 -277 -288 -261 -241 -218 -138 -121 -121 -115 -135 -122 -146 -162 -167 -180
0 0 0 0 0 -32 -207 -232 -240 -254 -262 -226 -273 -339 -330 -344 0 0 0 0 0 0 0 0 0 0 0 0 0 0 0 -162 -326 -323 -355 0 0 -333 -287 -210 -130 -111 -139 -124 -122 -109 -128 -101 -156
0 0 0 0 0 -32 -158 -45 -340 -302 -317 -268 -271 -319 -353 -400 -72 0 0 0 0 0 0 0 0 0 0 0 0 0 0 -317 -402 -423 -6 -341 -316 -324 -234 -255 -151 -117 -192 -248 -303 -102 -105 -122 -108
0 0 -9 0 0 0 0 0 0 -374 -344 -359 -335 -350 -327 -401 -388 0 -522 -3 0 0 0 0 0 0 0 0 0 0 0 -449 -443 -456 -414 -370 -349 -230 -191 -215 -212 0 -468 -522 -327 -153 -169 -153 -94
0 -12 0 0 0 0 0 0 0 -336 -364 -396 -425 -379 -319 -399 -461 -518 -547 -545 0 0 0 0 0 0 0 0 0 0 -482 -459 -421 -371 -326 -333 -340 -279 -160 -284 -561 -556 -206 -429 -189 -150 -185 -161 -167
0 0 0 0 0 0 0 0 0 0 -75 -372 -475 -459 -404 -408 -464 -518 -573 -601 -614 0 0 0 0 0 0 -360 0 -548 -532 -514 -453 -402 -384 -391 -390 -300 -156 -291 -391 -329 -385 -199 -185 -237 -229 -210 -268
0 0 0 0 0 0 0 0 -16 0 0 0 -87 -465 -460 -485 -577 -562 -595 -640 -667 -666 -620 0 0 0 0 -42 -535 -559 -587 -560 -576 -572 -481 -347 -244 -293 -211 -234 -240 -222 -169 -243 -359 -581 -56 0 0
0 0 0 0 0 0 0 0 0 0 0 0 0 -152 -518 -455 -594 -592 -605 -645 -681 -670 -681 -717 -506 0 0 -666 -597 -601 -559 -537 -496 -433 -320 -250 -260 -277 -234 -144 -160 -214 -269 -465 0 0 0 0 0
0 0 0 0 0 0 0 0 0 0 0 0 0 0 0 0 -648 -581 -599 -634 -659 -667 -677 -689 -693 -729 -762 -735 -670 -579 -535 -547 -485 -410 -330 -291 -238 -138 -154 -250 -379 0 0 0 0 0 0 0 0
0 0 0 0 0 0 0 0 0 0 0 0 0 0 0 0 -27 -647 -639 -660 -642 -650 -656 -664 -667 -688 -741 -754 -656 -604 -504 -385 -354 -312 -265 -230 -130 -206 -315 -581 0 0 0 0 0 0 0 0 0
0 0 0 0 0 0 0 0 0 0 0 0 0 0 0 0 0 0 -619 -660 -713 -711 -707 -728 -644 -667 -674 -657 -581 -520 -498 -385 -315 -282 -260 -217 -186 -354 -866 0 0 0 0 0 0 0 0 0 0
Wind_Speed
8 8 4 3 2 6 2 4 3 5 5 3 3 4 8 6 2 3 3 5 4 2 4 7 12 13 13 14 14 14 14 13 15 14 14 14 13 13 13 13 11 10 11 10 9 8 9 9 8
5 7 0 1 4 3 2 3 3 6 7 11 11 9 6 5 4 8 6 4 4 4 4 5 11 12 13 12 13 13 13 14 13 12 12 13 13 12 12 11 10 9 9 9 8 7 7 7 5
7 1 1 1 3 4 5 7 6 13 16 5 7 7 4 4 7 5 4 6 5 3 4 7 12 13 12 12 12 12 12 12 11 12 11 12 11 12 11 10 9 8 6 6 5 4 4 4 4
3 3 1 2 4 1 5 6 14 12 7 7 12 11 6 4 5 5 6 5 6 5 4 9 12 13 12 11 11 12 11 10 10 11 11 10 10 11 11 9 7 5 4 4 4 5 5 5 5
2 2 2 3 5 4 5 12 11 4 4 7 4 5 5 4 11 10 6 5 6 4 3 5 11 12 11 10 10 11 11 9 9 10 9 9 9 9 8 6 4 2 2 3 4 6 7 6 7
1 1 3 3 6 5 3 5 4 4 6 7 9 9 4 9 11 6 6 6 5 5 4 5 10 11 10 9 9 9 9 9 9 8 7 6 6 6 6 4 2 1 3 5 6 7 8 8 8
2 2 3 5 5 5 4 3 4 7 8 5 11 6 5 7 7 7 5 5 6 5 5 4 3 8 9 9 8 7 8 8 7 6 4 4 3 1 2 1 2 4 5 7 8 9 9 9 9
3 3 4 4 6 3 7 3 6 5 4 10 7 6 9 7 8 7 5 6 5 5 6 5 4 3 4 3 8 7 7 6 5 4 2 1 1 0 2 2 3 6 7 9 10 10 10 7 8
4 4 2 5 6 5 7 6 5 7 8 3 3 5 13 14 10 8 7 5 5 3 5 5 4 3 3 2 3 4 5 5 4 1 1 1 2 3 5 6 6 7 8 9 11 12 10 9 4
5 4 7 8 8 9 13 7 8 6 3 4 8 14 18 15 11 11 9 7 4 4 2 3 4 2 2 2 3 3 3 0 0 2 4 3 3 4 6 8 9 7 9 11 12 11 11 11 3
4 5 6 8 8 15 13 10 4 11 3 5 12 19 17 14 10 9 6 7 5 4 3 4 3 5 4 2 2 1 1 1 1 2 2 2 3 3 3 2 2 2 7 3 5 4 3 4 2
4 5 4 9 11 11 10 5 8 2 2 9 15 19 14 13 11 10 8 6 6 5 5 5 4 3 2 2 2 0 1 1 2 3 3 2 2 2 1 2 3 3 3 5 4 2 3 4 5
4 4 5 16 13 11 11 8 6 6 9 14 17 14 13 9 8 6 6 5 5 5 4 4 4 3 3 3 2 1 1 0 3 3 4 3 3 2 2 1 1 4 2 3 3 4 4 5 6
3 10 11 15 13 13 12 6 4 5 10 13 13 11 9 8 9 6 6 6 6 4 5 5 5 4 4 3 4 2 1 2 4 4 4 3 3 2 1 3 4 4 4 3 4 4 4 4 5
5 11 10 8 6 7 15 6 4 11 11 12 11 10 9 8 7 8 8 7 7 5 6 6 6 5 5 4 4 3 3 2 3 3 4 4 3 4 3 2 2 3 3 5 3 4 4 4 4
6 6 5 6 7 7 1 0 7 12 12 10 12 10 11 10 12 9 10 9 8 6 7 6 6 6 6 5 4 3 1 2 3 3 3 6 5 4 2 3 3 2 2 3 3 3 3 2 3
7 5 2 4 9 8 2 3 12 14 14 14 13 13 12 11 10 10 11 11 10 9 7 7 6 7 7 5 4 3 2 2 2 1 3 5 3 4 3 4 3 3 2 2 1 1 1 3 4
5 5 3 4 6 4 5 5 15 15 12 12 12 13 14 13 14 13 13 11 10 9 7 7 7 7 6 3 2 2 2 3 3 2 3 5 4 4 3 4 2 3 3 3 1 2 2 3 4
6 6 6 3 2 5 5 10 19 17 13 13 12 14 13 13 14 12 12 12 11 10 8 8 7 7 4 2 1 1 3 2 3 4 6 4 4 6 4 2 1 3 2 3 3 2 3 2 1
5 4 5 2 6 5 6 8 15 18 19 16 15 13 14 11 10 11 12 11 11 12 11 8 9 8 6 3 2 2 2 3 3 4 5 5 6 6 4 5 1 2 3 3 3 2 3 2 2
4 5 3 3 5 4 6 2 10 12 11 13 14 13 13 13 12 13 13 14 12 12 13 11 11 9 7 7 2 0 1 2 2 3 4 4 5 6 5 5 2 2 1 3 3 2 2 2 2
8 11 8 9 5 3 4 5 8 13 18 15 17 16 15 14 13 13 14 13 14 14 12 12 11 10 8 8 5 6 5 4 3 3 3 5 5 7 4 4 2 0 0 3 3 2 2 1 2
11 8 10 5 5 4 3 2 6 15 16 19 19 19 18 16 15 16 16 16 14 13 12 11 11 11 9 10 10 8 6 4 3 2 5 6 6 6 6 2 3 1 1 3 4 5 3 1 1
6 2 4 6 5 2 7 7 6 9 21 18 20 20 19 17 17 16 16 14 13 12 12 11 11 12 11 11 10 11 10 7 4 4 4 4 3 4 5 1 2 1 2 2 2 1 3 3 2
5 8 3 5 2 8 6 7 15 10 10 18 21 21 20 17 16 15 15 14 13 15 14 12 13 15 11 12 12 12 11 8 8 6 4 5 3 2 5 2 2 1 0 1 3 4 5 4 3
8 10 7 7 3 5 4 7 13 19 18 19 18 21 18 17 15 17 18 17 16 16 16 14 14 14 11 13 14 12 11 7 6 6 4 4 3 3 2 3 4 2 1 5 5 4 4 5 5
5 5 10 2 5 3 6 8 7 6 14 14 15 13 16 17 17 19 17 17 17 16 18 16 13 13 12 14 12 11 9 9 7 6 4 4 3 2 3 2 3 5 6 7 6 5 6 5 5
12 7 4 3 6 7 5 5 6 3 11 13 14 17 17 16 16 17 17 18 16 17 15 15 15 16 15 14 12 10 10 8 6 5 6 5 3 2 4 5 6 7 8 6 6 5 5 5 3
4 3 4 6 6 7 3 8 7 10 13 18 18 18 18 17 19 17 16 16 17 15 15 16 15 16 14 13 12 11 9 8 6 6 5 4 3 4 5 7 8 7 7 6 6 5 5 6 5
10 11 9 7 5 3 5 9 4 10 14 15 14 15 17 17 18 17 16 14 14 15 15 17 16 16 16 13 11 10 7 7 7 6 5 6 5 5 8 8 8 7 6 5 6 5 4 5 5
Wind_Direction
153 153 172 157 108 80 134 236 345 185 157 340 66 123 108 39 36 162 87 122 132 129 124 109 108 108 99 95 96 95 95 95 101 101 103 104 104 100 101 106 103 101 99 100 97 98 100 97 101
164 154 73 191 78 84 189 183 212 150 115 110 81 98 60 76 61 115 111 150 146 149 129 109 105 99 96 99 97 99 97 95 95 100 103 102 106 107 116 111 111 109 104 101 97 88 86 86 83
175 96 61 106 122 163 171 195 201 134 169 127 116 64 74 86 87 116 102 128 127 132 122 138 122 109 104 101 105 101 104 99 110 109 108 108 111 110 110 111 111 109 97 79 68 67 66 53 28
153 21 18 100 211 180 160 171 137 139 89 62 113 87 88 19 115 126 114 121 122 147 138 128 118 115 119 116 113 112 111 116 113 115 119 111 121 117 117 119 112 98 86 60 24 356 7 13 355
44 105 358 49 26 73 85 142 157 107 91 128 133 109 72 64 106 109 113 107 116 115 126 116 121 122 120 122 125 119 121 125 114 120 120 118 120 121 119 117 105 77 57 11 7 338 338 348 343
170 242 54 103 114 82 80 111 105 87 93 125 94 104 89 111 119 110 112 119 119 119 115 112 129 127 136 132 129 123 137 123 121 113 117 115 106 119 117 115 101 320 348 325 327 318 317 323 325
190 122 175 139 137 150 161 141 118 127 126 88 128 103 105 127 121 134 129 121 121 124 109 99 132 144 142 132 135 125 130 108 98 98 106 114 139 139 86 19 337 314 315 305 304 306 309 315 320
197 104 89 138 177 145 152 111 122 85 78 105 128 162 155 138 139 117 109 100 125 116 129 158 150 132 107 111 134 133 114 106 104 118 126 148 161 128 295 268 301 299 298 298 298 297 296 309 331
159 71 167 171 165 148 158 143 154 88 133 106 126 115 118 132 129 126 109 110 103 147 160 156 142 99 87 109 137 122 129 127 126 189 240 347 322 298 279 258 254 266 276 285 283 286 288 290 330
143 139 193 167 152 162 154 156 131 123 123 53 83 99 120 138 146 142 146 145 157 158 148 131 117 135 157 172 106 88 45 9 40 5 334 338 292 269 273 280 294 321 299 277 273 276 288 310 36
175 190 166 156 141 144 141 134 87 127 226 193 164 142 139 143 148 142 143 171 163 162 156 143 168 189 179 139 99 92 41 309 356 312 238 298 284 281 282 333 306 301 280 289 297 298 285 336 70
104 58 121 140 131 137 143 82 105 352 318 139 148 141 141 151 154 152 164 168 161 146 155 165 187 212 171 126 89 145 165 294 262 262 271 301 300 327 302 292 301 282 273 280 281 295 301 303 259
86 110 52 134 130 125 100 87 87 72 93 111 132 136 149 148 149 146 162 174 147 159 169 172 165 170 141 168 139 200 270 13 259 280 272 238 242 240 252 268 293 290 281 269 314 319 301 298 297
64 93 96 131 119 121 110 121 91 120 123 121 138 142 158 162 160 140 168 173 171 158 187 190 200 170 178 193 191 189 207 270 275 265 256 264 270 249 228 331 333 324 316 328 321 323 295 285 292
100 86 61 102 111 118 120 47 99 145 142 143 154 163 174 181 174 172 180 178 180 195 197 196 208 185 191 221 180 195 228 275 277 260 247 260 253 290 329 299 286 298 321 325 320 300 302 304 317
85 48 116 220 160 175 105 225 157 162 164 172 177 186 190 194 195 184 188 190 193 184 191 195 196 187 202 220 202 220 236 292 293 341 321 302 268 272 316 297 294 284 298 301 322 307 306 295 335
9 154 180 165 197 162 101 147 185 177 186 185 192 192 197 201 199 193 195 195 192 196 191 191 202 202 206 221 229 236 290 285 286 343 315 317 270 286 230 264 293 334 312 300 319 308 264 317 318
180 135 265 214 208 120 128 163 172 185 193 194 199 203 202 200 204 192 190 198 194 198 201 190 198 212 214 222 260 316 313 298 318 299 276 308 286 269 239 253 306 331 356 341 336 274 260 217 266
190 142 174 224 188 123 177 157 182 189 199 202 214 200 204 204 203 197 188 188 190 200 198 203 191 206 174 186 200 282 249 299 296 303 310 338 278 260 265 276 279 308 312 298 303 296 305 296 340
221 162 204 237 153 100 175 191 185 190 202 203 211 211 211 199 190 185 191 189 189 192 198 200 203 190 199 187 202 179 191 234 251 284 296 304 291 271 259 250 211 276 310 328 304 310 325 306 13
227 185 164 236 125 51 121 66 188 213 205 213 216 216 223 209 189 188 187 193 193 195 195 197 201 199 199 199 164 309 7 347 321 292 292 277 277 282 274 258 204 290 339 355 315 342 308 308 309
202 199 175 153 90 205 167 270 211 198 209 208 214 210 215 213 206 192 191 192 196 200 197 195 197 199 202 189 190 196 197 209 223 232 275 299 300 300 293 237 177 28 31 342 310 344 324 280 346
229 165 179 137 127 127 201 3 272 176 208 213 211 212 208 210 206 199 198 195 198 197 196 193 193 199 200 200 205 209 219 221 230 255 288 298 306 318 308 248 129 63 348 327 321 7 13 43 61
225 187 107 56 93 343 188 148 255 187 209 207 211 208 210 205 205 207 202 197 198 196 195 192 192 204 198 199 203 208 211 218 229 243 256 273 290 307 311 303 203 230 250 292 331 59 41 29 33
156 74 5 357 54 229 143 163 234 217 201 198 200 203 202 201 200 201 196 197 199 200 198 195 196 208 198 199 206 212 219 213 219 224 228 265 297 280 293 302 291 293 163 17 69 52 46 41 48
214 147 161 193 194 263 109 224 252 217 201 193 197 197 190 194 195 196 197 197 199 201 200 200 201 208 197 202 210 212 215 219 227 224 221 245 244 250 295 267 269 273 67 66 64 60 56 62 58
210 181 203 100 41 297 212 276 296 279 175 167 187 179 191 195 193 196 197 199 198 201 204 199 196 204 202 206 208 211 209 213 221 225 217 231 258 276 263 241 65 59 60 73 75 66 54 45 44
148 174 89 3 199 243 285 279 249 148 163 163 180 189 191 194 197 197 198 199 200 204 201 198 198 202 204 205 205 208 204 202 205 201 226 239 277 220 131 91 76 70 72 71 65 56 43 59 37
147 179 84 126 136 181 179 269 224 195 188 180 189 192 189 188 196 196 199 200 200 195 195 199 201 203 205 203 200 199 192 190 183 197 212 197 161 155 113 98 90 82 73 62 75 78 49 67 59
181 187 157 146 244 251 151 264 213 191 203 178 194 193 194 194 197 197 198 195 195 196 194 196 199 203 205 198 191 189 169 171 184 195 187 176 163 113 108 107 98 90 80 68 71 68 60 68 67